Meteo pe oră la Almaraz

Astăzi, 28 Ianuarie, Joi

Timp Temperatura Precipitaţii Vânt Presiune Umiditate
00:00 +12°C° 0 mm 1 m/s 739 mmHg 91%
01:00 +12°C° 0 mm 1 m/s 738 mmHg 92%
02:00 +12°C° 0 mm 1 m/s 738 mmHg 92%
03:00 +11°C° 0 mm 1 m/s 737 mmHg 92%
04:00 +10°C° 0 mm 0 m/s 737 mmHg 93%
05:00 +10°C° 0 mm 0 m/s 737 mmHg 93%
06:00 +10°C° 0 mm 0 m/s 738 mmHg 94%
07:00 +11°C° 0 mm 0 m/s 738 mmHg 92%
08:00 +11°C° 0 mm 0 m/s 738 mmHg 91%
09:00 +12°C° 0 mm 0 m/s 738 mmHg 89%
10:00 +14°C° 0 mm 0 m/s 738 mmHg 85%
11:00 +15°C° 0 mm 0 m/s 738 mmHg 80%
12:00 +19°C° 0 mm 1 m/s 738 mmHg 75%
13:00 +19°C° 0 mm 1 m/s 737 mmHg 74%
14:00 +20°C° 0 mm 1 m/s 737 mmHg 73%
15:00 +20°C° 0 mm 1 m/s 736 mmHg 72%
16:00 +19°C° 0 mm 1 m/s 736 mmHg 78%
17:00 +16°C° 0 mm 1 m/s 736 mmHg 85%
18:00 +15°C° 0 mm 1 m/s 735 mmHg 91%
19:00 +14°C° 0 mm 1 m/s 736 mmHg 91%
20:00 +14°C° 0 mm 1 m/s 736 mmHg 91%
21:00 +13°C° 0 mm 1 m/s 736 mmHg 91%
22:00 +13°C° 0 mm 1 m/s 736 mmHg 92%
23:00 +13°C° 0 mm 1 m/s 736 mmHg 92%

Mâine, 29 Ianuarie, Vineri

Timp Temperatura Precipitaţii Vânt Presiune Umiditate
00:00 +12°C° 0 mm 1 m/s 736 mmHg 92%
01:00 +12°C° 0 mm 1 m/s 736 mmHg 92%
02:00 +12°C° 0 mm 1 m/s 736 mmHg 93%
03:00 +12°C° 0 mm 1 m/s 736 mmHg 93%
04:00 +11°C° 0 mm 1 m/s 736 mmHg 94%
05:00 +11°C° 0 mm 1 m/s 735 mmHg 94%
06:00 +11°C° 0 mm 1 m/s 735 mmHg 94%
07:00 +12°C° 0 mm 1 m/s 736 mmHg 94%
08:00 +12°C° 0 mm 1 m/s 736 mmHg 93%
09:00 +13°C° 0 mm 1 m/s 736 mmHg 92%
10:00 +14°C° 0 mm 1 m/s 736 mmHg 89%
11:00 +15°C° 0 mm 2 m/s 736 mmHg 86%
12:00 +15°C° 0 mm 2 m/s 736 mmHg 84%
13:00 +16°C° 0 mm 2 m/s 736 mmHg 82%
14:00 +16°C° 0 mm 2 m/s 735 mmHg 80%
15:00 +16°C° 0 mm 3 m/s 734 mmHg 79%
16:00 +15°C° 0 mm 2 m/s 734 mmHg 82%
17:00 +14°C° 0 mm 2 m/s 734 mmHg 86%
18:00 +13°C° 0 mm 2 m/s 734 mmHg 89%
19:00 +13°C° 0 mm 2 m/s 735 mmHg 89%
20:00 +13°C° 0 mm 2 m/s 735 mmHg 89%
21:00 +13°C° 0 mm 2 m/s 735 mmHg 89%
22:00 +13°C° 0 mm 2 m/s 734 mmHg 89%
23:00 +12°C° 0 mm 3 m/s 734 mmHg 89%

Poimâine, 30 Ianuarie, Sâmbătă

Timp Temperatura Precipitaţii Vânt Presiune Umiditate
00:00 +12°C° 0 mm 3 m/s 733 mmHg 88%
01:00 +12°C° 0.1 mm 4 m/s 733 mmHg 88%
02:00 +12°C° 0.1 mm 4 m/s 733 mmHg 88%
03:00 +12°C° 0.1 mm 5 m/s 732 mmHg 88%
04:00 +12°C° 0.4 mm 5 m/s 732 mmHg 89%
05:00 +12°C° 0.4 mm 5 m/s 732 mmHg 91%
06:00 +11°C° 0.4 mm 6 m/s 731 mmHg 93%
07:00 +11°C° 0 mm 6 m/s 732 mmHg 91%
08:00 +10°C° 0 mm 6 m/s 732 mmHg 89%
09:00 +10°C° 0 mm 6 m/s 732 mmHg 88%
10:00 +10°C° 0 mm 7 m/s 732 mmHg 81%
11:00 +11°C° 0 mm 8 m/s 732 mmHg 75%
12:00 +11°C° 0 mm 8 m/s 732 mmHg 69%
13:00 +11°C° 0 mm 8 m/s 732 mmHg 68%
14:00 +11°C° 0 mm 8 m/s 731 mmHg 67%
15:00 +11°C° 0 mm 8 m/s 731 mmHg 67%
16:00 +10°C° 0 mm 7 m/s 731 mmHg 69%
17:00 +9°C° 0 mm 7 m/s 731 mmHg 71%
18:00 +8°C° 0 mm 6 m/s 732 mmHg 73%
19:00 +8°C° 0 mm 6 m/s 732 mmHg 75%
20:00 +7°C° 0 mm 6 m/s 733 mmHg 76%
21:00 +7°C° 0 mm 5 m/s 733 mmHg 78%
22:00 +6°C° 0 mm 5 m/s 733 mmHg 79%
23:00 +6°C° 0 mm 5 m/s 733 mmHg 81%

31 Ianuarie, Duminică

Timp Temperatura Precipitaţii Vânt Presiune Umiditate
00:00 +6°C° 0 mm 4 m/s 733 mmHg 83%
01:00 +6°C° 0 mm 4 m/s 733 mmHg 84%
02:00 +5°C° 0 mm 4 m/s 733 mmHg 85%
03:00 +5°C° 0 mm 4 m/s 733 mmHg 86%
04:00 +5°C° 0 mm 4 m/s 733 mmHg 86%
05:00 +6°C° 0 mm 4 m/s 733 mmHg 86%
06:00 +6°C° 0 mm 4 m/s 733 mmHg 86%
07:00 +7°C° 0 mm 4 m/s 733 mmHg 87%
08:00 +7°C° 0 mm 4 m/s 734 mmHg 87%
09:00 +8°C° 0 mm 5 m/s 734 mmHg 87%
10:00 +9°C° 0 mm 5 m/s 734 mmHg 84%
11:00 +10°C° 0 mm 5 m/s 734 mmHg 80%
12:00 +11°C° 0 mm 6 m/s 734 mmHg 77%
13:00 +11°C° 0 mm 6 m/s 734 mmHg 79%
14:00 +12°C° 0 mm 5 m/s 733 mmHg 82%
15:00 +10°C° 0 mm 5 m/s 733 mmHg 85%
16:00 +10°C° 0 mm 5 m/s 733 mmHg 87%
17:00 +12°C° 0 mm 5 m/s 732 mmHg 89%
18:00 +12°C° 0 mm 4 m/s 732 mmHg 91%
19:00 +12°C° 0.1 mm 4 m/s 733 mmHg 93%
20:00 +12°C° 0.1 mm 5 m/s 733 mmHg 94%
21:00 +12°C° 0.1 mm 5 m/s 733 mmHg 95%
22:00 +12°C° 0.1 mm 4 m/s 733 mmHg 95%
23:00 +11°C° 0.1 mm 4 m/s 733 mmHg 95%

1 Februarie, Luni

Timp Temperatura Precipitaţii Vânt Presiune Umiditate
00:00 +11°C° 0.1 mm 4 m/s 733 mmHg 94%
01:00 +10°C° 0 mm 4 m/s 733 mmHg 94%
02:00 +10°C° 0 mm 4 m/s 733 mmHg 94%
03:00 +9°C° 0 mm 3 m/s 733 mmHg 94%
04:00 +9°C° 0 mm 3 m/s 733 mmHg 94%
05:00 +9°C° 0 mm 3 m/s 733 mmHg 95%
06:00 +8°C° 0 mm 3 m/s 733 mmHg 95%
07:00 +9°C° 0 mm 3 m/s 734 mmHg 94%
08:00 +9°C° 0 mm 3 m/s 734 mmHg 92%
09:00 +10°C° 0 mm 3 m/s 735 mmHg 91%
10:00 +11°C° 0 mm 3 m/s 735 mmHg 87%
11:00 +12°C° 0 mm 3 m/s 735 mmHg 83%
12:00 +14°C° 0 mm 4 m/s 735 mmHg 79%
13:00 +14°C° 0 mm 4 m/s 735 mmHg 77%
14:00 +15°C° 0 mm 4 m/s 734 mmHg 75%
15:00 +15°C° 0 mm 4 m/s 734 mmHg 73%
16:00 +14°C° 0 mm 4 m/s 734 mmHg 78%
17:00 +13°C° 0 mm 3 m/s 735 mmHg 82%
18:00 +11°C° 0 mm 3 m/s 735 mmHg 87%
19:00 +12°C° 0 mm 2 m/s 735 mmHg 89%
20:00 +10°C° 0 mm 2 m/s 735 mmHg 91%
21:00 +10°C° 0 mm 1 m/s 735 mmHg 93%
22:00 +10°C° 0 mm 1 m/s 735 mmHg 93%
23:00 +9°C° 0 mm 1 m/s 735 mmHg 94%

2 Februarie, Marţi

Timp Temperatura Precipitaţii Vânt Presiune Umiditate
00:00 +9°C° 0 mm 1 m/s 735 mmHg 95%
01:00 +9°C° 0 mm 1 m/s 735 mmHg 95%
02:00 +10°C° 0 mm 1 m/s 735 mmHg 95%
03:00 +10°C° 0 mm 1 m/s 735 mmHg 95%
04:00 +10°C° 0 mm 1 m/s 735 mmHg 95%
05:00 +11°C° 0 mm 1 m/s 735 mmHg 95%
06:00 +11°C° 0 mm 1 m/s 735 mmHg 95%
07:00 +11°C° 0 mm 1 m/s 735 mmHg 94%
08:00 +12°C° 0 mm 1 m/s 735 mmHg 92%
09:00 +12°C° 0 mm 2 m/s 736 mmHg 91%
10:00 +13°C° 0 mm 2 m/s 735 mmHg 86%
11:00 +13°C° 0 mm 2 m/s 735 mmHg 81%
12:00 +14°C° 0 mm 2 m/s 735 mmHg 76%
13:00 +14°C° 0 mm 2 m/s 734 mmHg 76%
14:00 +14°C° 0 mm 2 m/s 734 mmHg 75%
15:00 +14°C° 0 mm 2 m/s 733 mmHg 75%
16:00 +13°C° 0 mm 2 m/s 733 mmHg 79%
17:00 +12°C° 0 mm 1 m/s 733 mmHg 83%
18:00 +11°C° 0 mm 1 m/s 733 mmHg 87%
19:00 +10°C° 0 mm 1 m/s 733 mmHg 88%
20:00 +10°C° 0 mm 1 m/s 733 mmHg 89%
21:00 +9°C° 0 mm 1 m/s 733 mmHg 90%
22:00 +9°C° 0 mm 1 m/s 733 mmHg 91%
23:00 +9°C° 0 mm 1 m/s 732 mmHg 91%
Arată mai mult

Formular de consimțământ

Meteoprog și furnizorii noștri de servicii pot stoca și accesa date personale, precum cookies, identificatori de dispozitiv sau alte tehnologii similare pe dispozitivul dumneavoastră și procesa astfel de date pentru a personaliza conținutul și reclamele, dar și pentru a oferi caracteristici de social media și pentru a analiza traficul.

  • Stocarea și/sau accesarea informațiilor pe dispozitivul dumneavoastră

    Cookies, identificatori de dispozitiv sau alte informații pot fi stocate sau accesate pe dispozitiv în scopurile indicate mai sus.

  • Reclame și conținut personalizat, evaluarea reclamelor și a conținutului, informații despre audiențe și dezvoltarea produselor

    Reclamele și conținutul pot fi personalizate pe baza unui profil. Pot fi adăugate date suplimentare pentru a personaliza mai bine reclamele și conținutul. Performanța reclamelor și conținutului poate fi măsurată. Pot fi obținute informații despre utilizatorii care au văzut reclamele și conținutul. Aceste date pot fi utilizate pentru a dezvolta sau îmbunătăți experiența utilizatorilor, sistemele și software-ul.

Dând clic pe ‘Sunt de acord’, permiteți utilizarea cookie-urilor menționate, a identificatorilor de dispozitiv, balizelor web sau altor tehnologii similare. Setările pot fi modificate din browser-ul dispozitivului dumneavoastră.

În anumite scopuri, interesele legitime pot prima asupra consimțământului. Puteți citi mai multe informații în acest sens în Politica privind Confidențialitatea Datelor și Cookie.